Theta_e
317 318 318 317 319 320 320 321 323 323 324 325 326 324 324 326 323 322 327 331 328 321 316 315 315 315 314 313 312 312 312 312 312 313 312 312 311 311 311 310 310 310 310 311 313 314 315 317 318 320 321 321 323 324 325 326 326 326 327 328 328 328 327 326 325 323 323 324 323 323 325 326 325 325 324 324 323 323 322 321 320 319 318 317 317 318 319
317 318 318 318 318 319 319 319 319 321 322 323 323 323 323 325 326 326 326 325 320 315 313 313 312 311 311 311 310 311 310 310 310 311 310 310 309 309 309 308 309 308 308 309 310 310 311 312 313 315 315 316 318 320 321 323 324 325 325 326 326 326 325 324 323 323 324 324 322 322 324 325 324 324 324 323 323 322 321 320 320 320 320 319 318 318 319
318 318 318 318 319 319 319 317 317 318 320 321 321 320 321 323 324 324 322 321 317 313 311 311 310 310 310 310 309 310 309 309 309 309 308 308 308 307 307 307 307 307 307 308 308 307 308 308 310 311 312 312 313 315 317 319 321 323 323 324 324 324 324 323 323 323 323 322 322 322 322 322 322 322 322 322 322 322 320 318 318 318 318 319 319 318 319
319 318 318 319 319 319 319 317 315 316 319 320 319 318 318 321 323 322 322 322 318 312 310 310 310 309 309 308 308 308 308 308 307 307 307 306 306 306 305 305 306 305 306 306 307 306 306 306 308 308 309 310 310 312 313 314 316 318 319 320 321 322 323 323 322 322 322 321 320 320 319 319 319 319 318 319 320 320 319 317 317 316 316 317 317 317 319
319 318 318 319 319 320 320 315 312 313 315 317 318 317 316 316 318 321 322 320 315 311 310 310 309 308 308 307 307 306 306 306 306 306 305 304 304 304 304 304 304 304 305 305 305 305 305 305 306 306 307 307 308 309 310 311 313 315 315 316 316 318 319 320 320 320 320 320 320 319 318 317 317 316 316 317 317 318 317 316 316 317 317 317 317 318 319
319 319 318 318 320 321 318 311 309 311 312 313 316 316 314 313 315 317 316 314 311 310 309 308 307 307 306 305 305 305 305 305 304 304 304 303 303 302 302 302 303 304 304 305 304 304 305 305 305 305 305 305 306 307 308 309 310 311 312 312 313 313 314 315 316 317 317 317 318 318 317 316 316 316 315 316 316 317 317 317 316 316 317 318 318 319 319
319 318 318 321 322 318 313 309 309 309 310 311 313 313 311 311 313 314 313 310 308 307 305 305 304 304 304 303 303 303 303 303 303 303 303 302 302 302 301 301 302 303 303 303 304 304 304 304 304 304 305 305 305 305 306 307 307 307 308 308 309 310 310 310 312 314 315 315 315 315 315 315 316 315 315 316 317 318 318 318 317 317 318 318 318 318 317
318 318 318 321 319 313 311 311 309 308 309 310 311 314 313 310 310 311 310 308 306 304 304 304 303 303 303 303 302 302 302 302 302 302 302 301 301 301 301 301 301 301 302 302 303 303 303 303 303 303 304 304 304 303 303 304 305 305 306 306 306 307 307 307 308 309 311 312 312 312 313 314 314 314 313 314 315 316 317 316 315 315 316 315 316 317 317
317 318 318 317 316 314 312 311 308 307 308 307 308 313 313 309 308 309 308 306 305 304 304 304 304 304 304 303 302 302 301 301 301 301 301 301 301 301 301 301 301 300 301 301 301 302 302 302 302 302 302 302 302 302 302 302 302 303 304 304 303 304 304 305 306 306 307 308 308 308 310 311 311 311 310 310 310 311 311 310 309 310 310 310 310 312 313
316 317 317 316 318 317 312 310 308 306 306 305 304 309 312 308 306 307 307 306 305 305 305 304 305 307 306 304 303 301 301 301 301 301 301 301 301 301 301 301 301 300 300 300 300 301 301 301 301 300 300 301 301 301 301 301 301 301 302 302 302 302 302 302 303 304 305 305 305 305 306 306 306 307 307 307 307 308 308 307 306 305 306 307 307 308 308
315 317 318 317 318 315 310 308 307 306 306 305 304 311 315 309 305 307 307 306 305 305 306 305 307 309 307 304 302 301 300 300 301 300 300 300 300 300 300 300 300 300 300 300 299 300 300 301 300 299 298 299 299 299 300 300 300 300 300 300 300 300 300 301 301 301 301 301 302 302 302 302 302 303 303 304 305 306 306 305 305 305 306 306 305 306 307
315 316 316 314 313 311 308 307 307 307 307 306 309 317 317 309 306 307 306 306 306 306 306 307 308 309 307 304 302 301 300 300 300 300 300 300 300 300 299 299 299 299 299 299 299 299 300 300 300 299 298 298 299 299 299 299 299 299 299 299 299 299 299 300 300 301 301 300 300 299 299 299 299 300 300 300 301 302 302 303 303 303 303 303 302 302 302
314 315 315 313 311 309 307 306 306 306 307 309 314 317 311 306 307 307 306 306 307 307 308 308 308 306 304 302 301 300 300 300 300 300 300 300 300 299 298 298 298 298 298 298 298 298 299 299 299 299 299 298 299 299 298 298 298 298 298 298 299 298 298 298 298 299 300 300 300 300 300 299 298 298 298 298 299 300 301 301 301 301 301 302 301 301 300
313 314 314 313 311 308 305 306 306 307 310 313 313 309 305 305 307 307 306 306 307 307 307 307 305 303 301 301 300 300 300 300 300 300 300 300 299 299 298 297 297 298 298 298 297 297 298 298 299 299 298 298 298 298 298 298 297 298 298 298 298 298 298 298 298 297 298 298 299 299 300 300 300 299 298 298 299 299 299 299 299 299 300 301 302 302 300
311 312 313 314 312 307 304 306 307 307 309 309 306 303 305 306 307 307 307 306 307 306 305 304 303 302 301 301 301 300 300 300 300 300 300 299 299 298 298 298 298 298 298 298 297 297 297 297 298 298 298 298 298 298 298 297 297 297 297 298 298 298 299 298 298 298 297 297 298 298 299 299 300 300 300 300 300 300 300 300 300 301 301 301 302 302 301
310 312 311 310 308 304 303 305 306 305 304 304 303 303 305 306 306 306 306 305 305 305 304 303 302 302 301 301 301 300 300 300 299 299 299 299 298 298 298 298 298 298 298 298 298 298 297 297 297 297 297 298 298 297 297 297 296 296 297 297 298 298 298 298 298 298 298 298 299 299 299 299 300 301 301 301 301 301 301 302 302 302 302 302 302 302 301
308 308 307 305 303 302 303 303 304 304 303 303 303 303 303 304 305 305 305 304 304 304 303 303 302 302 301 301 300 300 300 299 299 299 299 298 298 298 298 297 297 297 297 297 297 298 297 298 297 297 297 297 298 297 297 297 297 297 297 298 298 297 297 298 298 298 298 299 299 299 299 299 300 300 300 301 301 301 301 302 302 302 301 301 302 302 302
306 305 304 304 303 303 303 303 303 304 303 303 303 302 302 302 302 302 303 302 302 302 302 302 302 302 301 300 300 299 299 300 300 299 299 298 298 298 297 297 297 297 297 297 297 297 297 297 297 297 297 297 297 297 298 298 298 298 298 298 298 297 297 297 297 298 298 299 299 299 299 299 299 299 299 300 300 300 301 301 301 301 300 300 300 301 301
306 306 304 304 304 304 304 304 303 303 302 302 302 301 301 300 300 300 300 300 301 301 301 301 302 302 301 301 300 299 299 300 300 299 299 299 298 298 298 298 297 297 297 297 297 297 297 297 297 297 297 297 297 297 297 297 298 298 298 298 298 298 297 297 297 298 298 298 299 299 298 298 299 298 299 299 299 299 300 300 300 300 300 300 300 300 301
305 305 305 304 304 304 304 304 303 303 302 301 300 300 300 300 299 299 299 300 300 301 301 301 301 301 301 301 300 300 300 301 300 300 299 299 299 299 298 298 298 298 298 298 298 298 298 297 297 297 297 297 297 297 297 298 297 297 297 297 297 297 297 297 297 297 297 298 298 299 298 298 298 298 298 299 299 299 298 298 299 300 300 300 300 300 300
304 305 304 304 304 304 303 303 303 303 303 302 300 300 300 299 299 298 299 299 299 300 300 301 301 300 300 301 300 300 301 301 301 300 300 299 299 299 299 299 299 299 299 299 299 299 298 298 298 298 298 298 298 298 298 298 298 298 298 298 297 297 297 297 297 297 297 298 298 298 299 298 297 297 297 297 298 298 297 296 296 296 298 299 299 298 299
304 304 304 305 305 303 302 302 302 302 302 302 302 301 300 300 300 299 299 299 299 299 299 300 301 301 300 301 301 300 301 301 301 300 300 299 299 299 299 299 299 299 299 299 299 299 299 299 299 299 299 298 298 298 298 298 298 299 299 299 299 298 298 298 297 298 298 298 298 298 299 299 298 297 296 296 296 297 296 295 294 295 295 296 296 295 297
304 304 304 305 304 303 302 302 302 302 302 302 302 302 301 301 300 301 300 300 299 299 299 299 301 301 300 300 300 300 300 300 300 300 300 300 299 299 299 299 299 299 299 299 299 299 299 299 299 299 299 299 298 298 298 298 298 298 299 299 299 299 298 297 297 298 298 298 298 298 299 299 299 299 298 297 296 295 295 295 294 294 295 295 295 294 295
304 304 304 305 304 302 302 302 302 302 303 302 302 302 302 302 302 301 301 300 300 300 299 299 299 300 301 300 300 300 300 300 300 300 300 300 300 299 299 299 299 299 299 299 299 299 299 299 299 298 298 298 298 298 298 298 298 298 298 298 298 298 297 297 297 297 298 298 298 298 298 298 299 299 299 299 298 296 295 295 295 295 295 295 295 295 295
303 303 304 304 303 302 302 302 303 303 302 302 302 302 302 302 302 302 301 301 301 300 300 300 299 299 300 300 300 300 300 300 300 300 300 299 299 299 299 299 299 299 299 299 299 299 299 299 298 298 298 298 298 298 298 298 298 297 297 297 297 297 297 297 297 297 297 297 297 298 298 298 299 299 299 300 299 298 297 295 295 295 295 294 294 295 295
303 303 303 302 302 302 302 301 301 302 302 302 302 302 302 302 302 301 301 301 301 300 300 300 299 299 299 299 299 299 299 299 299 299 299 299 299 299 299 299 299 299 299 299 299 299 299 299 299 298 298 298 298 298 298 298 298 297 297 297 296 296 296 297 298 297 297 297 297 298 298 299 299 299 299 299 299 300 299 298 297 297 296 295 295 294 295
302 302 302 301 301 301 301 300 300 301 302 301 301 301 301 301 301 300 300 301 301 300 300 299 299 299 298 298 298 297 297 298 298 298 299 299 299 299 299 299 299 299 299 299 299 299 299 299 299 298 298 298 299 298 298 298 298 297 297 297 296 295 295 296 297 297 297 297 297 297 298 298 298 299 299 299 299 299 299 299 299 299 298 297 296 295 294
301 302 302 302 301 301 301 301 301 301 301 301 300 300 300 300 300 300 300 300 300 300 300 299 298 298 298 298 297 297 297 297 298 298 298 299 299 299 299 299 299 299 298 298 298 298 298 298 298 298 298 298 298 298 298 298 298 297 297 297 297 297 296 296 297 297 297 297 297 296 297 298 298 298 298 298 298 299 299 299 299 299 299 298 298 296 295
301 302 302 302 302 301 301 301 300 300 300 301 300 300 299 299 299 299 300 300 300 299 299 299 298 298 298 297 297 296 296 297 297 297 298 298 298 298 299 299 299 298 298 298 298 298 298 298 298 298 299 298 298 298 298 298 298 297 297 297 296 297 297 296 296 296 296 296 296 295 295 297 297 298 298 297 298 298 298 298 298 298 298 298 298 297 296
301 301 302 302 302 302 301 300 300 299 300 300 300 299 299 299 298 298 299 299 299 299 299 298 298 298 297 297 296 296 296 296 296 297 297 297 298 298 298 298 298 298 298 298 298 298 298 298 298 298 299 298 298 298 298 298 298 297 297 297 296 296 296 296 296 297 297 296 295 295 296 296 297 297 297 297 297 297 297 297 297 297 298 297 297 297 297
301 301 301 301 301 301 300 300 299 299 300 300 300 300 299 299 298 298 298 299 299 299 299 298 298 298 297 296 296 296 296 296 296 296 296 297 298 298 297 297 298 298 298 297 297 297 297 298 298 298 298 298 298 298 298 298 298 297 297 297 297 296 295 295 295 296 296 296 295 295 296 296 297 296 296 297 297 297 297 297 296 297 297 296 296 296 295
300 300 301 300 300 300 300 299 299 299 299 300 300 299 299 298 298 298 298 299 299 298 298 298 298 297 297 296 296 296 296 295 295 295 296 296 296 296 295 296 296 296 296 296 296 296 296 296 297 297 298 298 298 298 298 298 298 297 297 296 296 296 295 295 295 296 296 295 295 295 295 296 297 296 296 296 296 296 296 296 296 296 296 296 296 295 294
299 299 299 299 299 299 299 299 299 299 299 300 300 300 300 299 299 298 298 298 299 298 298 298 298 297 297 296 296 295 295 294 294 295 295 295 294 294 294 294 295 295 295 295 295 294 294 294 295 296 297 298 297 298 298 298 298 298 297 296 296 296 296 295 295 296 296 296 295 295 295 296 296 296 296 296 296 296 296 296 296 296 296 296 295 294 293
299 299 299 300 299 299 299 299 299 298 299 299 300 300 300 299 299 299 298 298 298 298 298 298 298 297 296 295 295 294 294 294 295 294 293 292 292 292 292 293 293 294 293 293 293 293 293 294 295 296 297 297 297 298 298 298 298 298 297 296 296 296 296 296 296 296 296 295 295 294 295 296 296 296 296 296 296 296 295 296 296 296 296 296 295 294 293
300 300 300 300 300 300 300 299 299 299 298 298 299 300 300 299 299 299 298 298 298 298 298 298 298 297 295 295 295 294 294 294 295 294 293 291 290 289 289 290 292 292 292 292 292 292 293 294 295 296 296 297 297 297 298 298 298 297 297 296 296 296 296 296 296 295 295 295 295 295 295 296 295 295 296 296 296 296 295 295 295 295 295 295 295 295 294
300 300 300 300 300 300 299 299 299 299 299 298 299 299 299 299 299 299 298 298 298 298 298 298 297 296 295 295 295 294 294 294 294 294 293 292 291 289 288 289 290 292 292 293 293 292 293 293 293 294 294 296 297 297 297 298 298 298 297 296 296 296 296 296 295 295 294 295 295 295 294 295 295 295 295 296 296 295 295 295 295 295 295 295 295 295 294
300 300 300 299 299 299 299 299 299 299 299 299 299 299 299 299 299 298 298 298 298 298 298 298 297 296 296 295 295 294 295 294 294 294 294 293 292 291 289 288 289 290 292 293 293 293 293 292 292 291 292 295 297 297 297 297 297 297 297 296 296 296 296 296 295 295 294 294 294 294 294 295 295 295 295 296 295 295 295 295 295 295 295 295 295 294 294
299 299 299 299 299 299 299 299 299 299 299 299 299 298 298 298 298 298 298 298 298 298 298 298 297 297 297 296 295 295 295 295 294 294 294 293 293 292 291 291 291 292 293 294 294 293 293 292 291 291 292 295 297 297 296 296 296 297 297 296 296 296 296 296 295 295 295 294 294 294 295 295 295 295 295 295 295 295 295 295 295 295 295 295 294 294 294
299 299 299 299 299 299 299 299 299 299 298 299 299 298 298 298 298 298 298 298 298 298 298 297 297 297 297 297 296 296 296 296 295 294 294 293 293 292 292 293 293 294 294 293 293 293 292 291 292 293 295 296 297 297 296 295 296 297 297 296 296 296 296 296 295 295 295 294 294 294 295 295 295 296 295 295 295 295 294 294 294 295 295 295 294 294 294
299 299 299 299 299 299 299 299 299 299 298 299 299 298 298 298 298 298 298 298 298 298 298 297 297 297 297 297 297 297 297 297 296 295 294 294 293 292 293 294 294 294 293 292 292 293 292 290 292 295 297 296 296 297 296 295 295 296 297 296 296 296 296 296 295 295 295 294 294 294 295 295 295 295 295 295 295 295 295 294 294 295 295 295 294 294 294
299 299 299 299 299 299 299 299 299 299 299 299 299 298 298 298 298 298 298 298 298 298 297 297 297 297 297 297 297 297 297 297 296 296 295 294 294 294 295 295 295 295 293 292 293 294 292 290 291 294 296 296 296 297 296 295 295 296 296 296 296 296 296 296 295 295 295 295 295 294 295 295 295 295 295 295 295 295 295 295 295 295 295 294 294 294 294
299 299 299 299 299 299 299 299 299 299 299 299 299 299 298 298 298 298 298 298 298 297 297 297 297 296 296 297 297 297 296 297 297 296 296 295 295 296 295 295 295 294 292 292 293 294 293 291 291 293 295 296 296 296 295 295 296 296 296 296 296 296 296 295 295 295 295 295 295 295 294 295 295 295 295 295 295 295 295 295 295 295 294 294 294 294 293
299 299 299 299 299 299 299 299 299 299 299 299 298 298 298 298 298 298 298 298 298 297 297 297 297 296 296 296 297 296 297 297 297 297 296 296 296 296 295 295 294 293 292 291 293 294 294 293 293 293 294 295 295 294 294 295 296 296 296 295 295 296 296 296 295 295 295 295 295 295 295 295 295 295 295 295 295 295 295 295 295 294 294 294 294 294 293
299 299 299 299 299 299 299 298 299 299 298 298 298 298 298 298 298 298 298 298 298 297 297 297 297 297 297 297 297 297 297 297 297 297 297 296 296 296 295 294 294 293 291 291 293 294 295 295 295 294 294 294 294 293 294 295 296 295 295 294 294 295 296 296 295 295 295 295 295 295 295 295 295 295 295 295 295 295 294 295 294 294 294 294 294 293 293
299 299 299 299 299 299 299 299 299 299 298 298 299 298 298 298 298 298 298 298 298 298 298 297 297 297 297 297 297 297 297 297 297 297 297 296 297 297 295 294 293 293 292 291 292 294 295 295 295 295 295 294 293 292 293 294 295 294 293 293 293 294 295 296 295 295 295 295 295 295 294 295 295 295 295 294 294 294 294 294 294 294 294 294 294 293 293
299 299 299 299 299 299 299 299 299 299 298 298 298 298 298 298 298 298 298 298 298 297 298 297 297 297 297 297 298 297 297 297 297 297 297 297 297 296 295 294 293 293 292 291 292 293 294 295 295 294 294 294 293 292 292 293 293 293 292 292 292 293 295 295 295 295 295 295 295 295 294 294 294 295 295 294 294 294 294 294 294 294 294 293 293 293 293
299 299 299 299 299 299 299 299 298 299 299 299 299 298 298 299 298 298 298 298 298 298 298 298 297 297 297 297 297 297 298 298 298 298 297 297 297 296 295 294 294 293 293 292 292 293 293 293 294 294 294 293 293 292 291 291 291 292 292 292 292 293 294 295 295 295 295 295 295 295 294 294 294 294 294 294 294 294 294 293 293 293 293 293 292 292 292
299 299 299 299 299 299 299 299 299 299 299 299 299 298 298 298 298 298 298 298 298 298 298 298 297 297 297 297 297 297 298 298 298 298 298 297 297 297 296 295 294 294 293 292 292 292 292 291 292 293 294 294 293 293 292 291 291 291 291 292 292 293 293 294 295 295 296 295 295 295 295 294 294 294 293 293 294 294 294 293 293 293 293 292 292 292 292
299 298 298 298 298 299 299 299 299 299 298 298 298 298 298 298 298 298 298 298 298 298 298 297 297 297 297 297 297 297 297 297 297 297 297 297 297 297 296 296 295 294 293 292 292 293 292 291 291 291 292 293 293 293 293 292 291 291 291 292 292 293 293 293 294 295 296 296 295 295 295 295 294 294 293 293 293 293 293 293 293 293 292 292 292 292 291
298 298 298 298 298 298 298 298 298 298 298 298 298 298 298 298 298 298 298 298 298 297 297 297 297 297 297 297 297 297 297 297 297 297 297 296 297 296 296 295 294 294 293 292 293 293 292 291 290 290 291 292 293 293 293 292 292 291 291 291 292 292 292 292 293 294 295 296 296 295 295 295 295 294 293 293 293 293 292 292 292 292 291 291 291 291 291
298 298 298 298 298 298 298 298 297 297 298 298 298 298 298 298 297 297 297 297 297 297 297 297 297 297 297 297 297 297 297 297 296 296 296 296 296 296 295 295 294 294 292 291 292 293 293 292 290 290 290 291 292 293 293 292 291 291 291 291 291 291 292 292 292 293 294 295 295 295 295 295 294 294 293 293 293 292 292 292 291 291 291 290 290 290 290
298 298 298 298 298 298 297 297 297 297 297 297 297 297 297 297 297 297 297 297 297 297 297 297 297 297 297 297 297 297 297 296 296 296 296 296 296 295 295 295 295 295 294 292 292 293 293 292 290 289 289 291 292 292 291 291 290 290 290 290 290 291 292 293 293 293 293 293 293 294 295 295 294 294 293 293 293 292 292 292 291 291 291 290 290 290 289
Wind_Speed
9 7 3 4 6 7 7 8 7 7 8 5 3 3 5 6 2 2 4 10 11 8 7 6 6 6 6 6 7 6 6 7 7 7 9 11 11 11 11 11 11 11 9 8 10 13 14 13 12 11 10 9 9 9 9 9 9 10 12 14 15 16 16 16 16 17 16 14 15 13 9 10 13 13 13 12 11 11 10 9 8 8 8 9 9 9 9
7 7 4 2 6 9 9 10 9 7 7 7 7 6 6 6 5 5 8 12 11 7 5 6 6 5 5 6 6 7 7 8 8 8 10 10 10 10 10 10 10 10 10 10 10 12 13 13 13 13 13 12 12 13 11 10 11 12 12 12 12 14 15 15 16 17 15 14 16 14 11 11 12 12 12 12 11 11 10 8 7 6 6 6 7 8 9
5 2 2 0 5 9 11 11 10 8 5 6 6 6 5 4 5 7 9 11 8 4 4 6 5 5 6 7 7 8 8 8 8 9 10 10 10 10 10 10 10 10 11 12 12 13 13 14 14 13 14 13 14 15 15 14 14 13 15 16 16 16 18 17 17 17 17 18 19 19 17 15 15 15 14 13 13 12 11 10 8 7 6 6 6 7 7
5 3 3 3 4 8 11 11 12 10 7 4 5 5 5 4 4 5 6 5 4 4 5 6 6 7 8 8 8 7 7 8 8 9 9 9 10 10 10 10 10 10 11 12 13 14 14 15 15 14 14 14 15 17 18 18 16 17 19 19 17 17 19 19 18 18 18 20 21 21 21 20 19 18 15 13 12 10 10 10 9 8 7 6 6 7 7
6 6 5 3 3 4 4 7 9 9 8 6 3 4 6 7 3 2 2 3 5 6 6 6 7 8 9 8 8 7 7 8 9 9 10 10 10 10 10 10 10 10 10 12 14 14 14 16 16 14 15 15 15 18 21 21 21 22 23 20 17 17 17 17 16 16 17 18 18 18 19 18 16 14 11 8 6 6 7 7 6 8 8 7 7 8 8
6 8 7 3 3 4 2 4 6 6 7 8 5 4 6 7 4 3 5 7 8 7 6 7 7 8 9 9 9 8 8 7 8 9 10 10 10 11 10 10 10 10 11 12 13 14 15 16 16 15 17 19 20 21 22 23 23 24 24 22 20 18 17 17 16 15 15 16 15 16 16 16 15 14 12 10 8 8 8 8 7 7 8 8 8 9 8
5 8 8 5 2 2 3 2 7 6 4 7 6 3 6 6 4 5 7 8 8 8 8 9 8 8 10 11 12 11 10 8 8 9 10 10 11 11 11 11 12 12 13 14 14 13 13 14 15 15 16 18 22 24 25 25 25 25 26 25 22 19 18 18 18 17 17 18 18 18 17 17 17 15 13 12 12 12 12 12 11 10 10 9 10 10 9
4 6 4 3 4 4 3 2 6 7 3 6 5 1 5 7 4 4 7 8 8 10 10 10 9 9 11 12 12 12 11 10 9 9 10 10 11 11 11 12 13 13 14 14 14 14 13 14 15 16 16 16 20 23 24 25 25 24 25 26 24 22 21 19 18 18 17 18 19 19 20 21 20 18 17 15 14 14 14 15 15 15 14 13 13 12 11
1 3 4 4 6 5 4 2 5 5 3 4 4 1 3 6 4 2 6 9 10 10 10 10 10 8 9 10 10 11 11 11 10 11 12 12 12 13 13 13 12 12 14 16 16 15 16 17 18 18 18 18 21 24 23 23 23 22 23 23 21 22 22 21 21 20 19 19 19 18 19 21 20 20 19 17 16 16 17 17 17 18 18 17 16 16 15
1 3 5 4 4 4 5 6 6 5 3 3 3 2 1 4 3 1 6 9 10 10 10 10 8 5 4 7 7 8 9 10 11 12 13 13 13 14 13 12 12 12 14 17 18 17 18 19 20 23 24 23 25 26 23 21 22 22 21 20 19 19 19 19 21 22 22 22 21 18 17 17 18 19 18 17 17 18 17 17 16 17 17 16 15 14 13
1 2 3 3 2 3 5 8 9 8 4 2 3 2 1 3 2 3 6 8 9 9 9 7 5 3 3 5 4 4 7 10 11 11 11 12 12 13 12 12 12 12 13 15 18 19 19 18 19 23 29 29 27 25 22 21 22 22 21 20 19 19 19 19 20 21 22 22 22 21 19 18 18 18 17 16 16 15 14 14 14 14 13 13 12 10 9
3 3 4 4 4 4 7 11 10 7 2 3 4 2 3 4 2 3 6 7 9 9 7 2 2 1 4 6 6 6 8 10 12 11 11 11 11 12 12 13 13 12 12 14 17 18 17 16 15 18 25 29 26 21 20 21 21 20 19 18 18 18 19 18 18 17 17 18 19 19 18 18 18 17 16 15 15 14 12 12 13 11 10 10 10 9 7
5 6 6 4 3 3 9 12 9 6 2 4 2 1 3 5 4 3 6 7 9 7 2 1 3 4 6 10 10 9 9 10 11 12 12 12 12 12 13 15 16 15 15 15 16 15 14 14 14 14 20 24 21 18 20 22 20 18 17 16 16 17 18 18 17 16 15 15 14 14 13 13 13 13 13 13 13 12 10 10 11 10 9 8 8 7 6
3 4 5 5 4 4 11 12 7 5 3 2 2 4 4 6 3 3 5 7 8 3 2 3 6 9 12 12 11 10 9 9 10 11 12 12 11 11 13 15 16 15 15 17 18 18 16 15 14 14 18 21 19 18 20 20 17 16 16 15 15 15 16 17 17 16 15 15 14 12 11 11 10 10 10 10 10 9 8 8 8 8 7 6 5 5 3
2 4 5 4 3 5 14 12 5 5 5 2 3 6 5 3 2 4 5 5 4 3 5 8 11 13 13 12 11 10 9 9 10 11 10 10 10 10 11 12 12 11 12 14 17 18 18 18 18 17 18 19 18 18 18 16 15 15 15 14 13 13 14 14 14 13 14 14 13 12 11 10 9 8 8 7 7 7 6 6 6 5 5 4 4 3 2
2 4 5 3 2 5 10 9 4 4 5 3 3 3 4 5 4 3 5 5 4 6 9 11 11 12 12 11 11 10 9 9 10 10 8 9 9 10 10 11 10 10 12 12 13 14 15 17 19 19 19 18 17 17 16 14 14 15 13 12 13 13 12 12 12 12 12 12 11 10 9 8 7 7 6 6 5 5 5 4 4 4 4 3 2 2 1
6 6 5 3 2 4 6 6 5 5 4 3 3 4 5 6 6 4 6 7 7 8 10 11 11 11 11 11 11 10 9 9 9 8 8 9 10 10 10 11 11 11 12 13 14 14 14 14 14 15 16 17 16 14 12 10 11 11 11 11 12 12 12 12 11 11 11 11 10 9 8 8 8 7 7 6 6 5 5 4 4 3 3 2 2 2 1
10 9 7 6 6 6 7 7 7 7 7 6 6 7 6 6 7 7 7 9 10 9 10 10 10 10 10 10 9 9 9 9 9 9 9 10 10 11 11 12 12 13 13 14 15 15 15 14 14 13 13 14 14 12 10 9 9 9 10 11 11 11 11 12 12 11 10 10 10 10 9 8 8 8 7 7 6 5 5 5 4 4 4 3 3 2 2
5 6 8 8 8 8 8 9 9 10 10 9 8 8 7 8 9 10 10 11 11 10 9 9 9 9 10 10 9 8 8 9 9 9 10 10 10 11 11 11 11 12 13 13 13 13 13 12 12 12 12 12 12 11 10 10 10 10 10 11 11 11 11 11 12 12 11 10 10 10 10 9 8 8 8 7 7 7 6 6 5 5 4 4 4 4 4
5 7 10 10 11 11 10 9 10 10 10 10 10 9 10 11 12 12 13 13 10 8 7 6 7 8 8 9 9 8 8 9 10 9 10 10 10 10 9 9 10 10 11 11 11 11 11 10 9 10 10 10 9 9 9 9 9 10 11 10 10 10 10 10 10 10 10 11 9 9 10 10 10 9 8 8 8 8 8 7 6 6 6 6 6 6 6
8 9 9 9 10 11 11 11 11 11 10 11 11 11 12 13 12 13 13 13 12 9 7 7 5 6 6 6 7 8 8 9 9 9 9 9 9 8 8 8 8 9 10 10 10 10 9 9 8 9 9 9 8 8 8 7 7 8 9 8 8 8 8 8 8 8 8 9 8 7 7 8 9 10 10 8 6 6 7 6 4 3 4 5 6 6 7
6 7 6 5 6 8 8 10 11 11 11 12 12 12 13 12 12 12 12 12 11 10 8 7 6 5 5 6 6 6 7 8 8 8 8 8 8 7 7 8 8 8 8 9 9 9 9 8 8 9 9 9 8 8 8 8 7 7 7 6 7 7 7 7 7 6 6 6 7 6 6 5 5 7 9 10 9 6 5 6 6 5 4 3 4 5 5
7 7 7 6 7 8 8 9 10 10 10 11 11 12 12 11 11 11 11 11 9 7 7 7 6 5 4 5 4 4 4 5 7 7 7 7 7 7 8 8 8 8 8 8 8 8 8 8 8 8 8 8 9 9 9 9 9 8 7 6 6 6 7 7 6 5 5 6 5 5 5 5 4 4 5 8 11 10 8 7 7 7 6 6 6 6 6
8 8 8 7 8 9 8 8 9 9 9 9 10 10 11 10 10 10 10 10 9 7 6 5 5 4 3 3 3 2 2 2 3 5 5 5 6 6 7 7 8 8 7 7 7 7 7 7 7 7 7 7 8 8 8 8 9 9 8 7 6 6 6 6 5 5 5 5 5 5 4 4 4 3 3 4 6 9 9 9 9 9 9 9 8 8 7
8 8 7 8 9 9 8 8 8 8 9 9 9 9 9 10 10 11 10 9 10 9 7 5 4 3 3 3 3 3 3 2 1 1 3 4 4 4 5 6 6 6 6 5 5 5 5 6 6 6 6 6 6 6 7 7 8 8 8 8 7 6 5 5 5 4 4 4 4 4 4 4 4 4 3 3 3 4 5 6 9 11 11 10 9 8 8
9 8 8 9 9 7 6 7 8 7 8 9 9 8 8 7 7 9 10 10 9 9 9 8 7 5 4 4 3 3 3 3 3 2 4 5 5 4 4 4 4 4 4 4 3 3 4 4 4 4 5 5 5 5 6 6 6 7 8 8 7 7 5 5 4 4 4 4 4 4 4 4 4 4 4 5 4 3 4 5 5 8 9 10 12 12 11
9 7 7 8 8 5 5 6 7 5 6 8 9 9 8 7 6 8 10 10 9 9 9 9 8 7 6 5 4 4 3 2 1 3 5 6 6 6 5 4 3 3 2 2 2 2 2 2 2 2 3 4 4 4 4 5 6 6 7 7 6 6 6 5 4 4 4 5 5 5 4 4 5 5 5 5 5 5 5 4 3 5 6 7 9 12 12
7 5 3 4 6 7 6 7 8 7 6 7 7 8 8 8 7 8 8 9 9 9 8 8 7 6 5 4 3 4 4 3 2 1 3 5 6 6 5 4 4 3 1 0 1 2 3 2 1 1 1 2 3 3 3 4 4 5 5 5 5 4 4 4 4 4 4 5 6 7 6 5 5 5 6 6 5 5 5 5 4 4 5 5 6 9 12
6 5 4 5 7 8 7 7 8 7 6 6 6 6 7 6 6 6 6 7 7 7 7 6 5 3 3 3 2 3 4 4 3 3 1 1 3 4 4 4 3 2 3 3 2 2 3 3 3 3 2 0 1 2 2 2 2 3 4 4 4 4 4 3 3 3 3 4 6 7 5 4 4 5 5 5 5 5 5 5 4 4 5 6 6 7 9
5 5 5 6 7 6 6 6 5 5 5 5 5 5 5 4 4 4 4 5 5 5 5 5 4 2 2 2 2 2 3 3 3 3 2 2 2 2 3 3 3 4 5 5 4 4 4 4 5 4 4 3 2 1 1 1 2 2 2 3 4 4 3 1 1 2 1 2 4 5 4 3 3 4 4 4 4 4 4 5 4 3 4 5 7 8 9
5 5 5 5 5 4 4 4 4 4 4 4 3 3 3 3 2 2 2 3 3 4 4 4 3 1 1 1 2 3 2 2 1 1 0 0 1 2 3 4 5 6 6 6 6 6 6 7 7 6 5 5 4 3 2 1 1 1 2 2 3 3 1 2 2 1 1 1 2 4 2 1 2 2 2 3 3 4 4 4 4 4 5 6 7 9 10
5 5 5 4 3 3 3 3 3 3 3 3 3 3 3 2 1 1 2 2 3 3 4 4 3 1 1 2 2 2 2 2 2 2 3 3 4 6 6 6 6 7 7 7 6 7 8 9 9 8 7 7 6 5 4 2 2 1 2 2 3 3 2 1 2 0 1 1 1 2 1 1 1 2 3 3 4 4 4 5 5 5 6 7 8 9 11
2 3 3 2 1 1 2 2 3 3 3 3 3 3 3 2 2 2 1 2 3 4 5 5 3 2 3 3 4 3 3 4 4 4 4 4 5 7 8 8 8 9 9 9 8 8 9 9 9 9 9 8 8 7 6 4 3 2 2 2 2 2 2 1 1 1 0 1 1 2 0 1 2 2 3 4 4 4 4 5 5 6 6 7 8 9 12
3 2 2 2 1 1 1 0 1 2 3 3 3 4 4 4 3 3 2 2 3 4 5 5 4 4 5 6 6 5 4 4 4 2 3 4 5 6 7 8 9 8 9 10 10 10 10 9 9 9 9 9 9 9 8 6 5 3 2 1 2 2 1 1 1 1 1 1 1 1 2 2 3 3 4 4 4 4 4 4 5 5 6 6 6 8 10
3 2 2 2 2 2 2 1 1 1 2 2 2 2 3 4 4 3 2 2 3 4 4 5 6 6 7 8 7 6 7 6 5 2 3 5 6 6 7 8 8 7 8 9 9 10 10 9 9 9 9 10 11 11 10 8 6 4 3 2 1 1 0 0 0 0 1 1 1 2 3 3 3 4 4 4 4 4 5 5 5 5 5 5 5 5 8
3 3 4 4 4 4 2 1 1 1 1 1 2 2 2 2 3 3 2 2 3 3 5 6 7 8 9 9 9 8 8 8 7 6 6 7 7 7 7 8 7 7 8 8 8 9 9 9 10 11 10 10 11 12 11 10 7 5 4 3 2 1 1 1 1 0 0 1 1 3 4 4 4 5 5 4 4 4 5 5 5 5 5 5 5 5 6
5 5 6 6 5 5 4 3 3 2 2 3 4 3 2 2 3 3 3 3 3 4 5 7 8 8 9 10 10 9 8 7 8 8 8 8 8 8 9 9 10 10 9 8 7 6 7 9 11 12 12 12 12 12 12 12 10 6 4 4 3 2 2 2 1 1 1 1 2 5 6 5 5 5 5 4 4 4 4 4 5 5 5 5 5 5 6
6 5 5 5 4 4 3 3 2 2 1 1 2 1 1 2 2 3 4 4 4 4 5 7 8 8 8 8 9 9 9 8 8 9 9 9 10 10 10 10 9 9 7 6 5 5 6 9 10 10 11 12 13 13 13 13 12 8 6 5 4 3 3 3 2 2 2 2 4 5 6 5 5 5 5 5 5 4 4 5 5 5 5 5 5 5 6
4 4 3 2 2 2 2 1 0 1 2 2 1 1 1 1 1 2 3 4 4 4 5 6 7 8 8 8 8 9 8 7 7 8 8 9 10 10 11 11 9 8 8 7 6 6 7 9 8 8 10 12 14 13 13 14 14 10 7 6 5 4 3 3 3 3 2 2 3 5 5 5 5 6 5 5 5 5 6 6 5 5 5 5 5 6 6
3 3 2 2 2 2 2 2 1 1 1 2 2 2 2 3 3 3 3 3 4 4 4 5 6 8 9 9 9 8 6 4 5 6 7 7 8 9 10 9 7 6 6 7 6 7 9 10 8 7 9 12 13 12 11 14 15 11 8 7 6 5 4 4 4 4 3 3 4 5 6 6 6 6 6 6 5 6 6 6 5 5 5 5 5 5 6
2 2 1 1 1 2 2 2 1 1 0 1 2 2 1 2 3 4 3 3 4 4 4 4 5 6 7 7 8 7 5 5 4 4 5 5 6 7 8 5 1 2 4 5 5 6 8 9 9 8 9 11 13 11 10 12 14 12 9 8 7 6 5 5 4 4 4 4 4 5 5 6 6 6 6 6 5 5 5 5 5 5 5 5 5 5 5
2 2 2 2 1 1 1 1 1 1 1 1 1 1 1 1 2 3 3 3 4 5 5 5 5 5 5 5 6 6 6 6 5 6 7 7 7 7 7 4 2 3 6 5 4 3 5 7 9 10 9 10 11 11 11 12 13 12 10 8 8 8 7 6 5 4 4 4 4 4 5 5 6 6 6 6 6 5 5 4 4 4 4 4 4 4 4
2 2 2 1 0 1 1 1 2 2 2 2 2 2 2 2 3 3 3 3 4 5 6 6 6 6 6 5 6 7 7 7 6 6 7 8 9 8 7 4 3 5 6 5 3 3 3 4 7 9 10 10 10 11 11 12 11 11 9 8 8 8 8 7 6 5 5 5 5 5 5 5 5 6 6 6 5 5 5 4 4 4 3 3 3 3 3
2 2 2 2 1 1 2 3 3 4 4 3 3 3 4 4 4 4 5 5 5 6 6 7 7 6 6 6 6 7 7 6 6 6 7 7 8 8 8 6 4 4 4 4 4 4 3 3 5 8 11 11 10 10 10 11 10 9 8 8 8 9 9 8 8 7 6 5 5 5 6 6 5 5 6 6 5 5 5 5 4 4 3 3 3 3 3
1 1 2 2 3 3 3 3 4 5 5 4 4 4 5 5 5 5 6 6 7 7 7 7 7 7 6 6 6 6 6 6 6 6 7 7 6 4 6 7 6 4 3 3 4 5 5 5 7 8 10 10 10 10 11 13 12 10 8 8 8 9 9 10 9 9 8 6 5 5 6 6 6 6 6 5 5 5 5 5 5 5 4 4 3 3 3
1 1 1 2 3 3 3 3 4 4 4 5 5 5 4 4 5 5 6 6 7 7 7 7 8 8 7 6 6 6 6 7 7 7 7 8 6 4 3 5 7 7 6 5 5 5 6 7 9 10 10 11 11 11 12 13 13 12 10 9 9 9 10 10 10 10 10 8 6 5 5 6 6 6 6 6 6 6 6 6 5 5 5 4 4 4 4
1 2 2 2 3 3 3 2 3 4 4 5 5 4 3 3 4 5 5 5 6 6 6 6 6 6 6 6 6 6 7 8 8 7 6 6 6 5 5 6 7 8 9 8 7 7 8 9 10 11 11 12 13 13 14 14 14 13 12 12 11 10 10 10 10 11 11 10 8 7 6 5 6 6 6 7 7 7 7 7 7 6 5 5 5 5 4
2 2 2 2 3 3 3 2 4 4 4 4 3 2 2 2 4 5 5 5 6 6 6 6 6 6 6 6 7 7 7 8 8 6 4 3 4 4 4 4 5 6 7 7 8 9 10 11 12 12 13 14 15 15 15 14 14 14 14 14 12 11 10 10 10 11 12 12 10 9 8 7 7 6 6 7 8 8 8 8 8 7 6 6 6 6 6
1 2 2 2 2 3 3 3 4 4 3 3 3 3 2 3 5 5 5 5 5 5 6 6 6 7 7 7 8 7 7 7 7 7 5 4 5 5 4 5 6 6 6 5 6 7 8 10 11 12 13 14 15 14 13 13 13 13 13 13 12 11 10 10 10 11 12 13 12 11 9 8 7 7 7 7 7 7 8 8 8 8 8 7 6 6 6
1 2 2 2 3 3 4 4 5 4 4 4 4 4 3 4 5 5 4 4 4 4 5 5 5 6 6 6 6 6 6 6 7 7 7 7 6 5 4 4 5 6 7 7 6 6 6 8 9 11 13 14 14 13 12 11 11 11 11 12 11 11 11 11 11 11 12 13 13 12 11 10 9 8 8 8 7 8 8 8 7 9 10 9 7 6 7
2 3 3 3 3 3 3 3 4 4 4 4 4 4 4 5 6 4 3 3 4 4 5 5 4 4 4 5 5 5 6 6 6 6 6 6 6 5 5 4 5 5 6 7 7 6 5 6 6 8 10 12 13 12 11 11 10 9 10 10 11 10 11 11 12 12 12 12 12 12 12 12 11 9 9 9 9 8 8 8 8 8 9 9 8 7 8
1 2 2 2 2 2 2 1 1 2 3 3 3 4 4 6 6 5 2 2 4 5 5 5 4 3 2 3 4 4 4 5 6 6 6 6 6 6 6 6 6 6 5 6 6 5 5 5 5 6 7 9 10 10 10 11 11 10 9 10 10 10 10 10 10 10 10 11 11 12 12 13 13 12 11 10 10 10 9 9 9 8 8 8 8 8 8
Wind_Direction
27 15 38 73 83 86 77 64 52 38 37 41 53 42 360 338 304 223 144 124 114 92 74 67 61 61 58 53 49 44 42 44 48 53 56 55 52 46 42 41 36 33 35 30 16 21 34 40 43 49 57 70 89 104 117 127 134 148 159 158 153 146 138 138 145 151 154 160 165 159 142 141 146 145 144 142 137 136 137 142 150 154 159 166 169 167 159
38 9 354 63 106 97 76 59 48 41 47 53 57 47 21 21 49 71 96 96 83 72 79 76 72 75 70 63 61 57 51 47 49 53 56 56 55 53 49 48 47 42 42 42 36 35 38 40 44 48 47 54 71 79 87 102 117 132 142 138 132 131 125 122 131 142 143 147 152 146 129 123 122 120 121 122 122 124 128 135 141 141 146 154 162 163 159
96 41 324 139 111 99 87 65 44 39 52 58 53 40 21 39 70 82 98 97 82 67 83 86 87 88 79 69 64 61 55 50 52 55 56 56 53 53 52 53 53 51 49 48 43 42 44 46 51 53 52 53 62 72 78 82 92 107 114 114 116 121 122 123 128 135 135 136 139 138 134 127 118 115 117 115 112 112 118 129 137 144 148 142 148 155 151
142 146 170 152 119 106 92 62 34 26 31 37 45 40 14 15 79 116 133 123 107 108 101 95 93 85 76 66 59 61 57 54 57 57 54 52 49 50 54 56 55 52 50 48 44 40 42 49 52 54 60 62 59 68 80 85 91 97 97 98 103 108 116 125 129 131 133 133 133 134 134 132 127 124 123 116 111 110 118 125 127 135 144 149 156 148 131
158 157 165 151 176 171 107 45 9 3 9 10 27 59 30 11 22 119 138 104 113 130 124 110 98 84 75 64 54 57 59 58 59 58 57 56 51 50 52 55 56 56 56 53 50 47 48 53 55 57 65 70 65 68 79 85 90 93 94 94 93 91 100 112 118 122 123 120 120 126 133 136 136 139 143 142 142 145 144 143 134 128 129 132 135 128 125
158 152 159 167 212 212 148 32 354 348 1 3 10 47 31 13 12 42 73 99 115 125 119 108 96 79 73 69 59 55 57 61 65 63 60 58 55 53 53 54 57 62 66 65 61 57 58 60 63 66 70 76 78 79 80 81 82 85 88 90 89 87 89 95 104 112 116 116 118 128 140 146 152 166 181 185 183 175 166 168 163 143 133 130 125 118 120
139 152 175 185 179 165 156 55 13 6 353 358 8 43 36 25 40 69 92 111 111 107 108 104 96 85 80 74 63 56 54 59 69 71 65 61 60 58 55 55 58 59 64 70 66 58 59 64 67 68 69 74 80 80 79 79 77 78 80 81 83 84 83 84 94 104 111 116 119 124 132 139 144 152 161 163 161 157 153 151 148 142 139 137 130 119 110
144 169 191 172 116 100 145 146 19 12 346 349 356 66 52 31 24 79 107 115 110 115 119 112 109 105 90 75 60 54 56 59 66 71 68 64 64 62 58 56 52 44 46 56 57 53 59 67 68 68 66 70 76 75 73 75 75 73 74 75 77 81 81 81 86 92 96 103 109 113 122 128 131 131 130 129 132 134 135 133 131 131 130 127 124 121 113
168 135 89 107 134 107 80 54 23 15 342 339 333 287 54 28 0 69 122 126 123 126 127 123 127 122 94 73 54 48 56 62 67 72 73 72 71 69 65 61 50 38 41 52 52 50 57 63 67 70 68 68 73 71 66 67 70 68 69 71 70 73 76 79 87 92 93 95 97 100 107 114 118 121 120 118 119 121 122 119 116 118 118 115 115 117 116
249 149 117 127 160 111 45 16 11 4 323 298 284 257 33 29 11 90 134 134 132 136 138 142 158 159 88 70 56 50 60 68 71 72 71 70 69 68 64 60 49 40 46 55 55 53 56 58 66 77 79 74 73 71 63 61 64 63 63 65 65 66 68 71 82 91 95 97 98 96 95 98 104 109 112 113 116 119 116 111 108 108 109 109 108 111 114
200 181 132 88 80 72 21 355 352 350 329 236 218 225 56 48 58 142 142 140 143 149 151 158 197 211 121 103 98 84 79 78 77 75 70 64 60 59 56 53 50 44 46 57 62 60 56 53 59 76 84 81 76 70 65 61 61 59 56 57 63 68 72 74 79 85 89 93 97 98 97 97 101 106 108 109 112 113 111 112 112 109 110 111 109 110 117
94 86 87 72 71 52 2 347 344 343 329 205 219 214 63 32 17 157 151 150 154 157 160 171 307 309 139 137 135 125 109 97 88 83 78 69 62 60 56 52 53 50 47 55 60 58 54 52 53 67 80 80 73 68 68 65 61 58 54 55 61 67 73 75 75 75 77 81 86 90 92 96 100 103 105 107 110 109 109 112 113 111 114 117 115 111 113
88 92 100 92 86 34 351 343 344 345 300 217 231 33 20 339 326 157 152 157 159 165 184 349 14 52 107 124 132 131 120 109 98 89 85 77 70 66 63 62 63 59 54 57 62 60 58 59 54 57 72 75 68 65 69 66 62 62 62 61 61 63 68 71 72 71 71 72 74 75 77 85 92 97 100 102 103 101 101 108 114 114 113 113 114 114 112
70 100 109 108 108 39 350 338 339 351 324 232 3 359 325 312 312 148 148 155 159 158 28 76 100 103 109 120 131 129 117 110 104 99 95 88 81 76 72 71 70 64 60 64 68 70 71 71 66 62 69 71 67 64 66 64 64 68 68 66 65 64 65 66 66 66 67 67 68 67 66 70 75 79 84 87 87 88 91 98 106 109 106 101 101 102 110
49 93 88 89 100 20 354 345 351 12 3 356 342 332 331 1 62 126 135 142 146 110 92 111 117 117 118 123 126 122 115 112 109 104 100 93 90 88 81 75 73 70 70 71 71 72 74 77 79 77 73 72 69 66 65 64 68 70 67 64 65 64 64 63 60 58 59 59 60 59 58 60 63 63 64 67 69 73 80 86 91 92 88 89 97 94 82
10 71 69 58 27 356 357 1 16 13 353 332 315 327 16 38 51 92 96 86 86 108 119 122 118 117 121 123 122 119 116 114 112 109 104 96 93 93 87 82 78 77 79 80 79 76 73 74 79 81 81 80 77 72 69 68 70 70 66 63 61 59 59 60 58 56 54 52 51 50 49 51 55 57 58 60 61 62 65 71 82 85 79 74 83 88 79
59 70 76 77 48 12 15 23 24 20 19 19 35 64 62 42 34 56 82 86 90 106 118 118 114 115 117 120 123 123 120 120 121 116 107 100 96 92 89 87 83 80 80 80 78 75 70 69 72 76 80 82 80 77 75 71 69 67 62 60 61 60 59 58 56 55 55 51 48 45 42 42 45 44 43 46 49 52 54 57 62 67 69 65 58 44 40
89 79 74 77 70 52 46 45 38 38 46 58 72 79 74 58 50 54 75 90 92 94 102 106 109 114 119 123 127 128 127 127 126 121 114 107 101 96 92 88 85 84 82 78 75 71 68 67 68 68 70 74 74 73 70 66 65 65 62 60 60 58 57 55 51 48 48 46 44 40 38 40 42 40 37 39 40 38 41 45 48 46 41 35 34 35 29
110 83 72 71 71 66 60 60 58 54 55 61 69 72 73 73 70 66 73 84 87 87 93 102 111 120 128 131 129 130 131 129 127 125 120 114 110 106 102 96 91 87 84 81 78 75 70 67 66 67 67 69 69 68 65 61 60 59 56 56 56 54 52 49 46 44 41 38 37 38 37 37 38 39 38 39 40 37 33 29 28 33 35 25 20 20 15
93 94 92 85 76 69 64 62 62 62 66 72 76 79 82 82 78 74 75 77 76 71 70 83 104 117 124 126 124 122 123 125 127 125 119 117 117 114 111 109 102 96 93 91 87 83 79 75 70 69 68 68 67 67 65 62 61 59 56 54 54 54 52 47 44 42 40 38 38 39 40 40 39 37 33 32 35 34 27 21 17 15 15 17 15 9 2
98 106 112 108 91 76 69 68 68 69 76 85 92 94 92 89 86 81 77 75 74 66 48 40 59 87 93 98 110 116 113 113 117 117 116 118 120 118 118 115 108 104 103 103 99 94 92 89 84 80 78 75 73 72 71 69 69 68 67 66 65 63 58 51 46 43 41 41 41 42 48 51 49 42 35 36 43 34 18 18 34 38 20 14 11 3 355
98 104 113 110 97 86 78 77 77 78 83 91 97 100 101 100 101 99 94 88 82 73 59 44 41 51 46 40 63 95 105 107 111 116 120 124 125 123 120 115 110 108 105 103 101 98 95 95 91 87 86 83 79 76 72 68 67 68 71 74 74 71 65 55 49 48 51 51 49 49 54 64 67 54 41 39 49 53 34 27 41 55 51 24 7 1 352
87 97 100 94 97 101 98 91 87 87 90 93 96 100 106 112 117 117 115 110 100 89 78 66 55 54 49 32 39 69 88 103 115 123 127 129 130 129 125 119 117 115 111 109 106 99 95 95 91 87 86 82 78 73 65 59 55 53 53 59 67 69 64 54 47 48 54 54 52 52 51 49 58 77 66 48 42 42 44 45 45 45 44 36 27 21 12
95 98 98 99 103 105 103 99 94 93 94 94 96 103 112 120 126 126 122 122 124 120 108 87 65 55 52 37 31 39 56 106 125 131 133 131 130 130 126 121 118 117 118 122 121 115 108 102 97 93 87 80 74 69 63 58 54 49 49 56 63 66 64 58 52 53 55 52 48 49 53 53 51 65 101 91 58 42 39 43 47 50 50 45 38 29 20
97 99 96 98 102 104 106 104 97 92 91 92 95 102 107 113 121 127 128 132 135 136 134 129 117 97 77 47 24 13 359 354 17 120 158 156 153 148 136 125 118 109 104 110 121 130 128 117 110 108 100 92 87 78 68 62 57 52 52 55 56 56 57 60 61 59 54 50 45 43 49 61 62 56 60 74 83 87 86 72 60 57 56 52 47 41 30
97 108 107 102 100 104 112 108 98 90 90 95 99 102 104 108 118 125 128 132 137 143 145 142 141 139 130 112 81 42 15 2 345 271 228 205 192 186 172 150 131 111 95 90 100 121 127 122 116 108 96 92 91 80 67 58 51 49 48 49 54 57 52 45 49 54 47 37 33 33 36 43 49 54 54 46 41 63 108 122 105 81 67 56 51 52 49
95 102 112 114 111 104 100 102 101 93 89 97 102 105 110 119 123 120 122 127 134 141 143 142 143 143 132 120 110 93 70 37 336 265 246 232 220 214 200 172 154 139 116 84 88 127 157 157 129 102 79 73 69 61 53 44 40 41 39 38 48 59 49 34 35 47 44 29 22 21 26 36 41 40 40 42 41 43 52 66 85 86 72 51 39 40 40
85 74 77 120 122 116 112 114 118 114 103 103 106 107 111 120 124 122 125 133 137 140 142 141 141 140 130 121 111 99 89 72 46 312 243 232 226 220 200 177 172 182 204 311 98 167 206 219 193 161 63 53 48 41 41 38 36 39 36 28 31 38 34 28 30 36 32 24 22 22 19 21 34 37 32 34 42 49 50 49 47 52 52 34 18 21 27
72 60 61 92 111 119 125 128 127 124 119 118 120 115 112 117 121 120 127 139 146 147 145 140 136 128 112 103 92 90 90 80 69 69 90 179 201 201 190 179 182 211 248 271 268 221 231 241 235 231 235 254 6 23 39 39 32 33 28 22 19 15 12 16 22 24 27 22 20 24 23 13 18 31 36 38 42 49 56 59 55 47 44 32 18 20 26
70 66 80 101 115 125 130 135 139 138 134 135 136 129 122 120 116 113 127 148 158 158 153 149 146 136 115 100 82 78 78 73 70 70 73 90 125 164 179 188 210 232 244 252 252 244 246 252 251 248 244 238 243 270 354 14 31 36 26 24 23 10 352 328 346 350 1 7 1 4 11 16 23 33 41 48 58 65 68 70 67 60 54 43 35 33 29
87 80 87 103 117 123 124 137 147 143 143 153 162 156 145 133 112 106 128 161 176 174 170 168 167 157 126 103 92 90 85 73 70 51 333 235 221 240 236 232 247 263 265 257 252 254 256 255 254 254 252 246 243 247 264 298 335 4 3 14 24 12 4 169 173 326 339 339 345 349 359 33 54 65 75 75 79 80 77 77 75 69 66 64 52 37 24
111 110 112 114 124 136 137 146 164 171 172 184 196 192 177 166 154 134 146 185 204 193 186 192 196 161 114 118 131 155 198 234 256 273 278 266 257 261 263 263 272 285 286 275 266 265 262 257 255 255 251 246 242 240 243 258 272 301 339 353 8 20 40 136 179 277 316 275 317 345 10 103 100 101 104 96 93 91 83 78 79 77 74 73 60 39 31
120 123 118 108 130 164 144 154 192 201 196 204 223 230 214 201 211 219 202 203 203 199 203 210 203 149 148 179 205 223 240 250 249 251 260 267 265 263 265 267 271 275 276 273 270 267 262 257 255 251 244 239 238 235 233 240 254 271 308 334 352 20 47 110 214 227 206 250 310 329 319 145 125 121 117 107 100 96 89 85 87 86 83 80 66 46 42
8 1 13 15 344 333 5 4 224 218 218 224 233 232 221 216 219 225 229 232 223 212 209 203 178 164 186 212 227 231 236 249 253 228 220 247 257 255 257 263 265 266 268 268 263 258 254 251 250 246 240 233 231 229 228 229 235 247 268 300 326 342 16 148 189 237 250 281 306 232 181 158 147 142 133 120 111 103 97 96 96 94 91 89 76 53 44
19 13 33 41 35 35 22 356 324 269 245 240 236 227 216 208 202 198 212 244 242 218 198 186 183 193 210 224 232 230 232 250 270 262 229 243 252 251 250 255 257 258 259 259 255 252 249 246 243 240 236 230 225 224 225 225 224 226 230 250 297 312 252 158 58 339 280 280 245 203 178 156 152 151 145 134 126 116 108 103 102 101 96 89 79 59 43
59 80 87 80 69 60 46 19 17 15 18 85 94 114 154 169 179 187 195 215 220 201 182 181 192 210 223 230 234 238 243 256 267 264 250 247 247 248 250 252 254 261 267 265 259 252 247 243 239 235 231 228 223 219 218 219 220 217 214 218 239 232 179 168 142 100 71 303 215 177 161 147 144 149 152 146 131 121 116 111 104 102 96 85 76 65 50
70 75 79 74 66 58 56 60 63 52 60 82 88 99 129 154 178 189 190 196 201 192 185 185 192 210 228 236 243 252 260 266 268 264 258 253 249 251 256 255 252 255 262 268 267 256 244 242 243 238 230 224 221 217 214 214 213 209 206 210 220 224 203 186 176 158 128 95 147 163 166 164 157 154 154 147 133 125 124 118 108 101 95 86 76 68 62
75 72 69 65 62 59 60 68 70 49 31 57 74 98 136 161 192 201 203 206 199 192 197 202 204 211 221 232 245 256 264 270 272 270 267 262 255 254 257 258 257 258 264 272 277 265 250 246 245 237 224 218 214 213 213 211 206 205 211 215 213 215 211 196 178 164 139 120 139 159 170 173 168 162 153 141 134 126 117 113 112 107 98 90 83 76 72
76 73 64 50 39 35 30 37 43 353 328 318 305 246 193 223 238 217 206 202 191 189 202 214 219 223 225 229 240 250 258 267 273 273 273 271 266 263 264 264 263 268 278 284 279 264 255 251 241 223 215 212 208 207 211 210 204 204 216 219 209 209 210 194 176 171 161 133 138 157 167 168 165 162 156 147 140 130 120 117 116 111 103 96 89 83 77
62 63 53 32 17 3 345 328 323 348 349 339 326 301 257 251 250 237 216 196 185 190 206 220 229 233 234 235 242 249 252 254 262 269 271 268 266 269 273 270 258 255 274 288 282 259 251 248 235 217 213 211 205 202 208 210 205 206 216 216 208 209 211 199 188 183 171 153 153 163 166 164 162 161 159 156 148 136 130 128 123 116 109 103 96 87 80
29 26 6 341 7 8 1 354 349 357 49 28 13 8 333 268 255 248 236 215 200 202 218 234 241 245 245 244 248 254 255 249 242 240 240 241 249 266 282 290 272 238 274 294 294 272 256 244 228 217 215 210 202 202 210 210 206 210 218 215 209 212 212 202 200 198 181 174 176 172 164 164 167 167 164 160 150 140 134 130 125 120 114 106 97 90 83
1 349 316 281 259 300 339 344 336 316 303 316 337 356 1 316 277 261 248 233 227 232 240 243 247 253 256 254 253 256 258 255 244 229 225 230 243 267 294 325 350 286 285 297 307 289 263 236 220 217 217 208 204 209 215 211 207 212 219 217 213 216 215 207 205 203 190 184 186 180 171 171 173 169 167 166 158 152 149 143 135 129 122 112 103 96 90
6 346 322 304 269 263 273 283 290 288 288 287 281 275 276 279 275 271 267 257 252 256 258 254 248 245 246 250 256 260 260 257 250 241 238 237 239 247 266 293 305 290 288 292 282 256 244 223 215 216 214 210 210 216 217 212 209 216 222 220 216 217 216 213 213 209 199 192 190 187 186 187 181 173 176 180 173 165 165 164 155 148 143 132 122 111 101
8 339 331 347 349 297 273 268 274 280 286 289 281 268 262 263 266 268 270 269 268 269 268 262 255 249 244 245 254 263 268 270 263 253 253 257 249 235 229 234 252 273 282 272 249 240 235 214 212 215 214 212 217 220 215 210 211 219 227 228 223 218 216 216 217 213 207 201 196 190 189 195 195 189 188 189 185 180 180 179 175 173 169 158 146 139 129
61 36 1 344 320 299 292 290 291 294 298 294 277 259 254 257 260 263 269 274 275 275 272 267 259 252 246 246 256 269 279 285 280 267 265 276 279 239 199 196 208 228 246 244 236 236 231 216 210 209 208 211 218 222 220 216 217 223 233 239 234 223 218 219 220 216 212 207 202 194 192 195 198 198 195 192 191 189 187 186 186 187 185 182 179 175 167
70 44 342 323 316 315 316 311 304 300 293 281 269 255 245 248 255 261 268 274 276 277 276 271 263 253 246 245 255 268 274 275 271 263 262 272 283 278 232 219 223 231 239 243 238 237 239 232 219 211 209 211 215 219 221 222 223 226 234 243 241 230 224 222 220 218 215 210 204 198 196 198 201 201 196 194 196 195 188 184 187 191 195 196 196 193 192
345 322 321 330 332 328 318 297 282 277 274 271 269 259 234 237 257 268 271 273 274 275 276 272 262 252 243 241 253 269 279 280 276 265 252 255 266 270 265 260 255 252 252 252 243 236 239 241 234 226 221 220 217 217 220 223 224 227 234 240 241 235 228 224 221 219 217 212 204 197 195 199 204 204 199 197 199 197 191 189 193 197 199 198 199 201 207
319 323 335 344 337 329 319 288 271 272 276 281 281 268 239 252 274 278 273 266 264 266 269 266 259 251 247 250 260 270 277 280 280 275 258 248 260 263 261 269 271 265 260 260 256 247 242 240 238 235 231 226 221 219 221 222 222 225 229 233 234 233 230 227 224 221 217 211 204 199 200 203 205 203 200 201 201 197 193 194 198 200 200 202 207 213 216
312 314 313 313 319 328 327 302 282 281 288 289 279 268 264 271 276 275 267 261 261 265 269 268 263 258 256 258 263 267 267 266 269 275 280 281 278 274 272 275 271 259 250 250 257 255 246 239 236 237 235 228 219 216 220 222 222 225 229 231 230 231 230 229 226 223 219 214 209 205 205 208 209 206 203 202 201 197 195 197 201 204 204 205 208 213 215
283 287 297 314 333 339 332 320 313 315 315 301 291 286 280 278 281 282 272 260 264 272 277 274 269 264 261 259 260 264 263 259 260 269 278 282 279 275 275 278 272 259 244 234 234 244 248 244 243 242 237 226 218 218 223 226 226 227 230 230 230 230 232 233 229 223 217 215 213 211 211 212 213 211 208 205 203 199 196 195 200 207 209 208 209 213 214
301 308 321 334 339 338 338 338 335 332 324 312 303 295 280 275 283 292 286 266 271 281 288 291 291 287 280 275 271 271 269 266 265 268 274 277 276 271 265 267 277 275 256 238 231 234 239 244 252 252 238 223 217 220 226 227 227 229 230 230 230 231 233 233 228 219 211 210 212 213 214 216 217 216 214 212 207 203 200 198 200 204 207 206 207 210 210
319 339 335 324 319 322 335 5 359 344 341 339 330 319 300 287 282 278 260 251 268 282 294 304 308 310 304 296 292 286 277 274 276 278 280 282 281 277 268 264 268 271 257 236 227 226 225 231 247 252 233 216 215 222 226 226 228 231 232 231 231 230 225 218 210 205 205 211 215 217 218 219 218 219 219 216 210 205 205 205 204 204 203 202 202 203 204